1 Minute Report
Date Time Wind Direction Wind Speed Wind Gust Wind Variable Altimeter Temperature Dewpoint Relative Humidity Visibility Ceiling Precip Present Weather Density Alt Wind Chill Heat Index
17/11/18 04:37 000 00 N/A N/A 30.03 22(F), -6(C) 21(F), -6(C) 100% 10 CLR N/A N/A N/A 22 F N/A 538
17/11/18 04:36 000 00 N/A N/A 30.03 22(F), -6(C) 21(F), -6(C) 100% 10 CLR N/A N/A N/A 22 F N/A 537
17/11/18 04:35 000 00 N/A N/A 30.03 22(F), -6(C) 21(F), -6(C) 100% 10 CLR N/A N/A N/A 22 F N/A 536
17/11/18 04:34 000 00 N/A N/A 30.03 22(F), -6(C) 21(F), -6(C) 100% 10 CLR N/A N/A N/A 22 F N/A 535
17/11/18 04:33 000 00 N/A N/A 30.03 22(F), -6(C) 22(F), -6(C) 100% 10 CLR N/A N/A N/A 22 F N/A 534
17/11/18 04:32 000 00 N/A N/A 30.03 22(F), -6(C) 22(F), -6(C) 100% 10 CLR N/A N/A N/A 22 F N/A 533
17/11/18 04:31 000 00 N/A N/A 30.03 22(F), -6(C) 22(F), -6(C) 100% 10 CLR N/A N/A N/A 22 F N/A 532
17/11/18 04:30 000 00 N/A N/A 30.04 22(F), -6(C) 22(F), -6(C) 100% 10 CLR N/A N/A N/A 22 F N/A 531
17/11/18 04:29 000 00 N/A N/A 30.04 22(F), -6(C) 22(F), -6(C) 100% 10 CLR N/A N/A N/A 22 F N/A 530
17/11/18 04:28 000 00 N/A N/A 30.04 22(F), -6(C) 22(F), -6(C) 100% 10 CLR N/A N/A N/A 22 F N/A 529
17/11/18 04:27 000 00 N/A N/A 30.04 22(F), -6(C) 22(F), -6(C) 100% 10 CLR N/A N/A N/A 22 F N/A 528
17/11/18 04:26 000 00 N/A N/A 30.04 22(F), -6(C) 22(F), -6(C) 100% 10 CLR N/A N/A N/A 22 F N/A 527
17/11/18 04:25 000 00 N/A N/A 30.03 22(F), -6(C) 22(F), -6(C) 100% 10 CLR N/A N/A N/A 22 F N/A 526
17/11/18 04:24 000 00 N/A N/A 30.03 22(F), -6(C) 22(F), -6(C) 100% 10 CLR N/A N/A N/A 22 F N/A 525
17/11/18 04:23 000 00 N/A N/A 30.04 22(F), -6(C) 22(F), -6(C) 100% 10 CLR N/A N/A N/A 22 F N/A 524
17/11/18 04:22 000 00 N/A N/A 30.04 22(F), -6(C) 22(F), -6(C) 100% 10 CLR N/A N/A N/A 22 F N/A 523
17/11/18 04:21 000 00 N/A N/A 30.04 22(F), -6(C) 22(F), -6(C) 100% 10 CLR N/A N/A N/A 22 F N/A 522
17/11/18 04:20 000 00 N/A N/A 30.04 22(F), -6(C) 22(F), -6(C) 100% 10 CLR N/A N/A N/A 22 F N/A 521
17/11/18 04:19 000 00 N/A N/A 30.04 22(F), -6(C) 22(F), -6(C) 100% 10 CLR N/A N/A N/A 22 F N/A 520
17/11/18 04:18 000 00 N/A N/A 30.04 22(F), -6(C) 22(F), -6(C) 100% 10 CLR N/A N/A N/A 22 F N/A 519
17/11/18 04:17 000 00 N/A N/A 30.04 22(F), -6(C) 22(F), -6(C) 100% 10 CLR N/A N/A N/A 22 F N/A 518
17/11/18 04:16 000 00 N/A N/A 30.04 22(F), -6(C) 22(F), -6(C) 100% 10 CLR N/A N/A N/A 22 F N/A 517
17/11/18 04:15 000 00 N/A N/A 30.04 22(F), -6(C) 22(F), -6(C) 100% 10 CLR N/A N/A N/A 22 F N/A 516
17/11/18 04:14 000 00 N/A N/A 30.04 22(F), -6(C) 22(F), -6(C) 100% 10 CLR N/A N/A N/A 22 F N/A 515
17/11/18 04:13 000 00 N/A N/A 30.04 22(F), -6(C) 22(F), -6(C) 100% 10 CLR N/A N/A N/A 22 F N/A 514
17/11/18 04:12 000 00 N/A N/A 30.04 22(F), -6(C) 22(F), -6(C) 100% 10 CLR N/A N/A N/A 22 F N/A 513
17/11/18 04:11 000 00 N/A N/A 30.04 22(F), -6(C) 22(F), -6(C) 100% 10 CLR N/A N/A N/A 22 F N/A 512
17/11/18 04:10 000 00 N/A N/A 30.04 22(F), -6(C) 22(F), -6(C) 100% 10 CLR N/A N/A N/A 22 F N/A 511
17/11/18 04:09 220 03 N/A N/A 30.04 22(F), -6(C) 22(F), -6(C) 100% 10 CLR N/A N/A N/A 22 F N/A 510
17/11/18 04:08 220 03 N/A N/A 30.04 22(F), -6(C) 22(F), -6(C) 100% 10 CLR N/A N/A N/A 22 F N/A 509
17/11/18 04:07 000 00 N/A N/A 30.04 22(F), -6(C) 22(F), -6(C) 100% 10 CLR N/A N/A N/A 22 F N/A 508
17/11/18 04:06 000 00 N/A N/A 30.04 22(F), -6(C) 22(F), -6(C) 100% 10 CLR N/A N/A N/A 22 F N/A 507
17/11/18 04:05 000 00 N/A N/A 30.04 22(F), -6(C) 22(F), -6(C) 100% 10 CLR N/A N/A N/A 22 F N/A 506
17/11/18 04:04 230 03 N/A N/A 30.04 22(F), -6(C) 22(F), -6(C) 100% 10 CLR N/A N/A N/A 22 F N/A 505
17/11/18 04:03 230 03 N/A N/A 30.04 22(F), -6(C) 22(F), -6(C) 100% 10 CLR N/A N/A N/A 22 F N/A 504
17/11/18 04:02 000 00 N/A N/A 30.04 22(F), -6(C) 22(F), -6(C) 100% 10 CLR N/A N/A N/A 22 F N/A 503
17/11/18 04:01 000 00 N/A N/A 30.04 22(F), -6(C) 22(F), -6(C) 100% 10 CLR N/A N/A N/A 22 F N/A 502
17/11/18 04:00 000 00 N/A N/A 30.04 22(F), -6(C) 22(F), -6(C) 100% 10 CLR N/A N/A N/A 22 F N/A 501
17/11/18 03:59 000 00 N/A N/A 30.04 22(F), -6(C) 22(F), -6(C) 100% 10 CLR N/A N/A N/A 22 F N/A 500
17/11/18 03:58 000 00 N/A N/A 30.04 22(F), -6(C) 22(F), -6(C) 100% 10 CLR N/A N/A N/A 22 F N/A 499
17/11/18 03:57 000 00 N/A N/A 30.04 22(F), -6(C) 22(F), -6(C) 100% 10 CLR N/A N/A N/A 22 F N/A 498
17/11/18 03:56 000 00 N/A N/A 30.04 22(F), -6(C) 22(F), -6(C) 100% 10 CLR N/A N/A N/A 22 F N/A 497
17/11/18 03:55 000 00 N/A N/A 30.04 22(F), -6(C) 22(F), -6(C) 100% 10 CLR N/A N/A N/A 22 F N/A 496
17/11/18 03:54 000 00 N/A N/A 30.04 22(F), -6(C) 22(F), -6(C) 100% 10 CLR N/A N/A N/A 22 F N/A 495
17/11/18 03:53 000 00 N/A N/A 30.04 22(F), -6(C) 22(F), -6(C) 100% 10 CLR N/A N/A N/A 22 F N/A 494
17/11/18 03:52 000 00 N/A N/A 30.04 22(F), -6(C) 22(F), -6(C) 100% 10 CLR N/A N/A N/A 22 F N/A 493
17/11/18 03:51 000 00 N/A N/A 30.04 22(F), -6(C) 22(F), -6(C) 100% 10 CLR N/A N/A N/A 22 F N/A 492
17/11/18 03:50 000 00 N/A N/A 30.04 22(F), -6(C) 22(F), -6(C) 100% 10 CLR N/A N/A N/A 22 F N/A 491
17/11/18 03:49 000 00 N/A N/A 30.04 22(F), -6(C) 22(F), -6(C) 100% 10 CLR N/A N/A N/A 22 F N/A 490
17/11/18 03:48 230 03 N/A N/A 30.05 22(F), -6(C) 22(F), -6(C) 100% 10 CLR N/A N/A N/A 22 F N/A 489
17/11/18 03:47 000 00 N/A N/A 30.05 22(F), -6(C) 22(F), -6(C) 100% 10 CLR N/A N/A N/A 22 F N/A 488
17/11/18 03:46 000 00 N/A N/A 30.04 22(F), -6(C) 22(F), -6(C) 100% 10 CLR N/A N/A N/A 22 F N/A 487
17/11/18 03:45 000 00 N/A N/A 30.04 22(F), -6(C) 22(F), -6(C) 100% 10 CLR N/A N/A N/A 22 F N/A 486
17/11/18 03:44 000 00 N/A N/A 30.04 22(F), -6(C) 22(F), -6(C) 100% 10 CLR N/A N/A N/A 22 F N/A 485
17/11/18 03:43 000 00 N/A N/A 30.05 22(F), -6(C) 22(F), -6(C) 100% 10 CLR N/A N/A N/A 22 F N/A 484
17/11/18 03:42 000 00 N/A N/A 30.05 22(F), -6(C) 22(F), -6(C) 100% 10 CLR N/A N/A N/A 22 F N/A 483
17/11/18 03:41 000 00 N/A N/A 30.05 22(F), -6(C) 22(F), -6(C) 100% 10 CLR N/A N/A N/A 22 F N/A 482
17/11/18 03:40 250 03 N/A N/A 30.05 22(F), -6(C) 22(F), -6(C) 100% 10 CLR N/A N/A N/A 22 F N/A 481
17/11/18 03:39 240 03 N/A N/A 30.05 22(F), -6(C) 22(F), -6(C) 100% 10 CLR N/A N/A N/A 22 F N/A 480
17/11/18 03:38 240 03 N/A N/A 30.05 22(F), -6(C) 22(F), -6(C) 100% 10 CLR N/A N/A N/A 22 F N/A 479
17/11/18 03:37 000 00 N/A N/A 30.05 22(F), -6(C) 22(F), -6(C) 100% 10 CLR N/A N/A N/A 22 F N/A 478
17/11/18 03:36 000 00 N/A N/A 30.05 22(F), -6(C) 22(F), -6(C) 100% 10 CLR N/A N/A N/A 22 F N/A 477
17/11/18 03:35 000 00 N/A N/A 30.05 23(F), -5(C) 22(F), -6(C) 93% 10 CLR N/A N/A N/A 23 F N/A 476
17/11/18 03:34 000 00 N/A N/A 30.05 23(F), -5(C) 22(F), -6(C) 93% 10 CLR N/A N/A N/A 23 F N/A 475
17/11/18 03:33 000 00 N/A N/A 30.04 23(F), -5(C) 22(F), -6(C) 93% 10 CLR N/A N/A N/A 23 F N/A 474
17/11/18 03:32 000 00 N/A N/A 30.04 23(F), -5(C) 22(F), -6(C) 93% 10 CLR N/A N/A N/A 23 F N/A 473
17/11/18 03:31 000 00 N/A N/A 30.04 23(F), -5(C) 22(F), -6(C) 93% 10 CLR N/A N/A N/A 23 F N/A 472
17/11/18 03:30 000 00 N/A N/A 30.04 23(F), -5(C) 22(F), -6(C) 93% 10 CLR N/A N/A N/A 23 F N/A 471
17/11/18 03:29 000 00 N/A N/A 30.04 23(F), -5(C) 22(F), -6(C) 93% 10 CLR N/A N/A N/A 23 F N/A 470
17/11/18 03:28 000 00 N/A N/A 30.04 23(F), -5(C) 22(F), -6(C) 93% 10 CLR N/A N/A N/A 23 F N/A 469
17/11/18 03:27 000 00 N/A N/A 30.04 23(F), -5(C) 22(F), -6(C) 93% 10 CLR N/A N/A N/A 23 F N/A 468
17/11/18 03:26 000 00 N/A N/A 30.04 23(F), -5(C) 22(F), -6(C) 93% 10 CLR N/A N/A N/A 23 F N/A 467
17/11/18 03:25 000 00 N/A N/A 30.05 23(F), -5(C) 22(F), -6(C) 93% 10 CLR N/A N/A N/A 23 F N/A 466
17/11/18 03:24 000 00 N/A N/A 30.05 23(F), -5(C) 22(F), -6(C) 93% 10 CLR N/A N/A N/A 23 F N/A 465
17/11/18 03:23 000 00 N/A N/A 30.05 23(F), -5(C) 22(F), -6(C) 93% 10 CLR N/A N/A N/A 23 F N/A 464
17/11/18 03:22 000 00 N/A N/A 30.05 22(F), -6(C) 21(F), -6(C) 100% 10 CLR N/A N/A N/A 22 F N/A 463
17/11/18 03:21 000 00 N/A N/A 30.05 22(F), -6(C) 21(F), -6(C) 100% 10 CLR N/A N/A N/A 22 F N/A 462
17/11/18 03:20 000 00 N/A N/A 30.05 22(F), -6(C) 21(F), -6(C) 100% 10 CLR N/A N/A N/A 22 F N/A 461
17/11/18 03:19 000 00 N/A N/A 30.05 22(F), -6(C) 21(F), -6(C) 100% 10 CLR N/A N/A N/A 22 F N/A 460
17/11/18 03:18 000 00 N/A N/A 30.04 23(F), -5(C) 21(F), -6(C) 93% 10 CLR N/A N/A N/A 23 F N/A 459
17/11/18 03:17 000 00 N/A N/A 30.04 23(F), -5(C) 21(F), -6(C) 93% 10 CLR N/A N/A N/A 23 F N/A 458
17/11/18 03:16 000 00 N/A N/A 30.05 23(F), -5(C) 21(F), -6(C) 93% 10 CLR N/A N/A N/A 23 F N/A 457
17/11/18 03:15 000 00 N/A N/A 30.05 23(F), -5(C) 21(F), -6(C) 93% 10 CLR N/A N/A N/A 23 F N/A 456
17/11/18 03:14 000 00 N/A N/A 30.05 23(F), -5(C) 21(F), -6(C) 93% 10 CLR N/A N/A N/A 23 F N/A 455
17/11/18 03:13 000 00 N/A N/A 30.05 23(F), -5(C) 21(F), -6(C) 93% 10 CLR N/A N/A N/A 23 F N/A 454
17/11/18 03:12 000 00 N/A N/A 30.05 23(F), -5(C) 22(F), -6(C) 93% 10 CLR N/A N/A N/A 23 F N/A 453
17/11/18 03:11 000 00 N/A N/A 30.05 24(F), -4(C) 22(F), -6(C) 86% 10 CLR N/A N/A N/A 24 F N/A 452
17/11/18 03:10 000 00 N/A N/A 30.05 24(F), -4(C) 22(F), -6(C) 86% 10 CLR N/A N/A N/A 24 F N/A 451
17/11/18 03:09 000 00 N/A N/A 30.05 24(F), -4(C) 22(F), -6(C) 86% 10 CLR N/A N/A N/A 24 F N/A 450
17/11/18 03:08 000 00 N/A N/A 30.05 24(F), -4(C) 22(F), -6(C) 86% 10 CLR N/A N/A N/A 24 F N/A 449
17/11/18 03:07 000 00 N/A N/A 30.05 24(F), -4(C) 22(F), -6(C) 86% 10 CLR N/A N/A N/A 24 F N/A 448
17/11/18 03:06 000 00 N/A N/A 30.05 24(F), -4(C) 22(F), -6(C) 86% 10 CLR N/A N/A N/A 24 F N/A 447
17/11/18 03:05 000 00 N/A N/A 30.05 25(F), -4(C) 22(F), -6(C) 86% 10 CLR N/A N/A N/A 25 F N/A 446
17/11/18 03:04 000 00 N/A N/A 30.05 25(F), -4(C) 22(F), -6(C) 86% 10 CLR N/A N/A N/A 25 F N/A 445
17/11/18 03:03 000 00 N/A N/A 30.05 25(F), -4(C) 23(F), -5(C) 93% 10 CLR N/A N/A N/A 25 F N/A 444
17/11/18 03:02 000 00 N/A N/A 30.05 25(F), -4(C) 23(F), -5(C) 93% 10 CLR N/A N/A N/A 25 F N/A 443
17/11/18 03:01 000 00 N/A N/A 30.05 25(F), -4(C) 23(F), -5(C) 93% 10 CLR N/A N/A N/A 25 F N/A 442
17/11/18 03:00 000 00 N/A N/A 30.05 25(F), -4(C) 23(F), -5(C) 93% 10 CLR N/A N/A N/A 25 F N/A 441
17/11/18 02:59 000 00 N/A N/A 30.05 25(F), -4(C) 23(F), -5(C) 93% 10 CLR N/A N/A N/A 25 F N/A 440
17/11/18 02:58 000 00 N/A N/A 30.05 25(F), -4(C) 23(F), -5(C) 93% 10 CLR N/A N/A N/A 25 F N/A 439
17/11/18 02:57 000 00 N/A N/A 30.05 25(F), -4(C) 23(F), -5(C) 93% 10 CLR N/A N/A N/A 25 F N/A 438
17/11/18 02:56 000 00 N/A N/A 30.05 25(F), -4(C) 23(F), -5(C) 93% 10 CLR N/A N/A N/A 25 F N/A 437
17/11/18 02:55 000 00 N/A N/A 30.05 25(F), -4(C) 23(F), -5(C) 93% 10 CLR N/A N/A N/A 25 F N/A 436
17/11/18 02:54 000 00 N/A N/A 30.05 25(F), -4(C) 23(F), -5(C) 93% 10 CLR N/A N/A N/A 25 F N/A 435
17/11/18 02:53 000 00 N/A N/A 30.05 25(F), -4(C) 23(F), -5(C) 93% 10 CLR N/A N/A N/A 25 F N/A 434
17/11/18 02:52 000 00 N/A N/A 30.05 25(F), -4(C) 23(F), -5(C) 93% 10 CLR N/A N/A N/A 25 F N/A 433
17/11/18 02:51 000 00 N/A N/A 30.05 25(F), -4(C) 23(F), -5(C) 93% 10 CLR N/A N/A N/A 25 F N/A 432
17/11/18 02:50 000 00 N/A N/A 30.05 25(F), -4(C) 23(F), -5(C) 93% 10 CLR N/A N/A N/A 25 F N/A 431
17/11/18 02:49 000 00 N/A N/A 30.05 25(F), -4(C) 23(F), -5(C) 93% 10 CLR N/A N/A N/A 25 F N/A 430
17/11/18 02:48 000 00 N/A N/A 30.05 25(F), -4(C) 23(F), -5(C) 93% 10 CLR N/A N/A N/A 25 F N/A 429
17/11/18 02:47 000 00 N/A N/A 30.05 25(F), -4(C) 23(F), -5(C) 93% 10 CLR N/A N/A N/A 25 F N/A 428
17/11/18 02:46 000 00 N/A N/A 30.05 25(F), -4(C) 23(F), -5(C) 93% 10 CLR N/A N/A N/A 25 F N/A 427
17/11/18 02:45 000 00 N/A N/A 30.05 25(F), -4(C) 23(F), -5(C) 93% 10 CLR N/A N/A N/A 25 F N/A 426
17/11/18 02:44 000 00 N/A N/A 30.05 25(F), -4(C) 23(F), -5(C) 93% 10 CLR N/A N/A N/A 25 F N/A 425
17/11/18 02:43 000 00 N/A N/A 30.05 25(F), -4(C) 23(F), -5(C) 93% 10 CLR N/A N/A N/A 25 F N/A 424
17/11/18 02:42 000 00 N/A N/A 30.05 25(F), -4(C) 23(F), -5(C) 93% 10 CLR N/A N/A N/A 25 F N/A 423
17/11/18 02:41 000 00 N/A N/A 30.05 25(F), -4(C) 23(F), -5(C) 93% 10 CLR N/A N/A N/A 25 F N/A 422
17/11/18 02:40 000 00 N/A N/A 30.05 25(F), -4(C) 23(F), -5(C) 93% 10 CLR N/A N/A N/A 25 F N/A 421
17/11/18 02:39 000 00 N/A N/A 30.05 25(F), -4(C) 23(F), -5(C) 93% 10 CLR N/A N/A N/A 25 F N/A 420
17/11/18 02:38 000 00 N/A N/A 30.05 25(F), -4(C) 23(F), -5(C) 93% 10 CLR N/A N/A N/A 25 F N/A 419
17/11/18 02:37 000 00 N/A N/A 30.05 25(F), -4(C) 23(F), -5(C) 93% 10 CLR N/A N/A N/A 25 F N/A 418